Big Rapids, MI

10:32 AM EDT on October 22, 2019 (GMT -0400)
Roben-Hood

Weather History for KRQB - August, 2019

Change the Weather History Date:

Monday, August 5, 2019

  Actual Average Record
Temperature  
Mean Temperature 68 °F -  
Max Temperature 83 °F 79 °F 96 °F (2001)
Min Temperature 53 °F 54 °F 42 °F (1992)
Cooling Degree Days 3    
Growing Degree Days 18 (Base 50)    
Moisture  
Dew Point 60 °F    
Average Humidity 76    
Maximum Humidity 96    
Minimum Humidity 51    
Precipitation  
Precipitation 0.17 in - - ()
Sea Level Pressure  
Sea Level Pressure 29.94 in    
Wind  
Wind Speed 3 mph (WSW)    
Max Wind Speed 15 mph    
Max Gust Speed 25 mph    
Visibility 9 miles    
Events Rain    
Averages and records for this station are not official NWS values.
T = Trace of Precipitation, MM = Missing Value Source: NWS Daily Summary

Daily Weather History Graph

Daily Weather History Graph

Search for Another Location

Airport or City:

Astronomy

Aug. 05, 2019 Rise Set
Actual Time 6:35 AM EDT 9:00 PM EDT
Civil Twilight 6:02 AM EDT 9:32 PM EDT
Nautical Twilight 5:22 AM EDT 10:12 PM EDT
Astronomical Twilight 4:37 AM EDT 10:57 PM EDT
Moon 12:00 PM EDT (8/5) No Moon Set
Length of Visible Light 15h 29m
Length of Day
14h 25m
Waxing Crescent, 28% of the Moon is Illuminated
Aug 5
Waxing Crescent
Aug 7
First Quarter
Aug 15
Full
Aug 23
Last Quarter
Aug 30
New

Hourly Weather History & Observations

Time (EDT) Temp. Heat Index Dew Point Humidity Pressure Visibility Wind Dir Wind Speed Gust Speed Precip Events Conditions
12:15 AM 59.5 °F - 57.0 °F 91% 30.00 in 10.0 mi Calm Calm - N/A   Clear
12:38 AM 59.2 °F - 56.1 °F 90% 30.00 in 10.0 mi Calm Calm - N/A   Clear
12:56 AM 59.2 °F - 55.4 °F 87% 30.00 in 10.0 mi Calm Calm - N/A   Clear
1:15 AM 57.4 °F - 55.2 °F 92% 30.01 in 10.0 mi Calm Calm - N/A   Clear
1:35 AM 57.4 °F - 54.5 °F 90% 30.01 in 10.0 mi Calm Calm - N/A   Clear
1:39 AM 57.4 °F - 54.7 °F 91% 30.01 in 10.0 mi Calm Calm - N/A   Clear
2:16 AM 57.2 °F - 54.7 °F 91% 30.01 in 10.0 mi Calm Calm - N/A   Clear
2:35 AM 56.1 °F - 53.4 °F 91% 30.01 in 10.0 mi Calm Calm - N/A   Clear
2:55 AM 55.4 °F - 53.8 °F 94% 30.00 in 10.0 mi Calm Calm - N/A   Clear
2:56 AM 55.4 °F - 53.6 °F 94% 30.00 in 10.0 mi Calm Calm - N/A   Clear
3:19 AM 55.4 °F - 53.6 °F 94% 30.01 in 10.0 mi Calm Calm - N/A   Clear
3:37 AM 54.5 °F - 52.9 °F 94% 30.00 in 10.0 mi Calm Calm - N/A   Clear
3:55 AM 54.5 °F - 52.9 °F 94% 30.01 in 10.0 mi Calm Calm - N/A   Clear
4:15 AM 53.6 °F - 51.8 °F 94% 30.01 in 10.0 mi Calm Calm - N/A   Clear
4:16 AM 53.6 °F - 51.8 °F 94% 30.01 in 10.0 mi Calm Calm - N/A   Clear
4:35 AM 53.8 °F - 52.2 °F 94% 30.00 in 10.0 mi Calm Calm - N/A   Clear
4:58 AM 53.2 °F - 51.8 °F 95% 30.00 in 10.0 mi ESE 6.9 mph - N/A   Clear
5:15 AM 53.6 °F - 52.2 °F 95% 30.00 in 10.0 mi Calm Calm - N/A   Clear
5:16 AM 53.6 °F - 52.3 °F 95% 30.00 in 10.0 mi Calm Calm - N/A   Clear
5:35 AM 53.8 °F - 52.3 °F 95% 30.00 in 10.0 mi Calm Calm - N/A   Clear
5:55 AM 53.8 °F - 52.3 °F 95% 29.99 in 10.0 mi Calm Calm - N/A   Clear
5:59 AM 53.8 °F - 52.3 °F 95% 29.99 in 10.0 mi Calm Calm - N/A   Clear
6:18 AM 53.1 °F - 51.8 °F 95% 29.98 in 10.0 mi Calm Calm - N/A   Clear
6:36 AM 53.6 °F - 52.2 °F 95% 29.98 in 10.0 mi Calm Calm - N/A   Clear
6:55 AM 53.2 °F - 52.0 °F 95% 29.98 in 10.0 mi Calm Calm - N/A   Clear
7:15 AM 54.0 °F - 52.9 °F 96% 29.98 in 10.0 mi Calm Calm - N/A   Clear
7:16 AM 54.1 °F - 52.9 °F 95% 29.98 in 10.0 mi Calm Calm - N/A   Clear
7:39 AM 54.7 °F - 53.4 °F 96% 29.99 in 10.0 mi East 8.1 mph - N/A   Clear
7:57 AM 56.5 °F - 54.9 °F 94% 29.99 in 10.0 mi Calm Calm - N/A   Clear
8:15 AM 58.3 °F - 56.3 °F 93% 30.00 in 10.0 mi Calm Calm - N/A   Clear
8:16 AM 58.3 °F - 56.3 °F 93% 30.00 in 10.0 mi Calm Calm - N/A   Clear
8:35 AM 60.4 °F - 57.6 °F 90% 29.99 in 10.0 mi Calm Calm - N/A   Clear
8:36 AM 60.6 °F - 57.7 °F 90% 29.99 in 10.0 mi Calm Calm - N/A   Clear
8:59 AM 62.8 °F - 58.6 °F 86% 29.98 in 10.0 mi Calm Calm - N/A   Clear
9:17 AM 65.3 °F - 59.7 °F 82% 29.98 in 10.0 mi Calm Calm - N/A   Clear
9:35 AM 68.5 °F - 61.3 °F 78% 29.99 in 10.0 mi Calm Calm - N/A   Clear
9:36 AM 68.7 °F - 61.3 °F 77% 29.99 in 10.0 mi Calm Calm - N/A   Clear
9:55 AM 74.5 °F - 60.6 °F 62% 29.98 in 10.0 mi WSW 5.8 mph - N/A   Clear
9:56 AM 74.7 °F - 60.4 °F 61% 29.98 in 10.0 mi WSW 6.9 mph - N/A   Clear
10:19 AM 76.1 °F - 59.7 °F 57% 29.98 in 10.0 mi West 6.9 mph - N/A   Clear
10:37 AM 77.4 °F - 60.1 °F 55% 29.98 in 10.0 mi WSW 4.6 mph - N/A   Clear
10:55 AM 78.1 °F - 59.2 °F 52% 29.99 in 10.0 mi West 9.2 mph - N/A   Clear
11:15 AM 78.4 °F - 60.8 °F 55% 29.99 in 10.0 mi WSW 5.8 mph - N/A   Clear
11:16 AM 78.3 °F - 60.8 °F 55% 29.98 in 10.0 mi WSW 5.8 mph - N/A   Clear
11:35 AM 79.2 °F - 62.1 °F 56% 29.98 in 10.0 mi WSW 10.4 mph - N/A   Clear
11:57 AM 79.9 °F - 62.6 °F 55% 29.98 in 10.0 mi West 6.9 mph - N/A   Clear
12:15 PM 81.3 °F 82.7 °F 63.7 °F 55% 29.97 in 10.0 mi WSW 8.1 mph - N/A   Clear
12:16 PM 81.3 °F 82.7 °F 63.5 °F 55% 29.97 in 10.0 mi WSW 6.9 mph - N/A   Clear
12:35 PM 81.3 °F 82.7 °F 63.9 °F 55% 29.96 in 10.0 mi SW 6.9 mph - N/A   Scattered Clouds
12:55 PM 82.0 °F 83.6 °F 64.2 °F 55% 29.96 in 10.0 mi West 6.9 mph - N/A   Scattered Clouds
1:00 PM 82.4 °F 83.7 °F 63.9 °F 53% 29.96 in 10.0 mi WSW 9.2 mph - N/A   Scattered Clouds
1:17 PM 83.1 °F 84.2 °F 63.3 °F 51% 29.95 in 10.0 mi SW 5.8 mph - N/A   Scattered Clouds
1:36 PM 82.9 °F 84.4 °F 64.0 °F 53% 29.94 in 10.0 mi SW 8.1 mph - N/A   Scattered Clouds
1:55 PM 82.8 °F 84.3 °F 64.8 °F 54% 29.94 in 10.0 mi SW 4.6 mph - N/A   Mostly Cloudy
2:15 PM 82.8 °F 84.2 °F 64.2 °F 53% 29.93 in 10.0 mi WSW 6.9 mph 17.3 mph N/A   Scattered Clouds
2:16 PM 82.6 °F 84.1 °F 64.2 °F 54% 29.93 in 10.0 mi WSW 8.1 mph 17.3 mph N/A   Scattered Clouds
2:39 PM 82.0 °F 83.9 °F 65.3 °F 57% 29.93 in 10.0 mi WSW 9.2 mph - N/A   Scattered Clouds
2:57 PM 77.5 °F - 69.3 °F 76% 29.92 in 7.0 mi WSW 5.8 mph - N/A Rain Light Rain
3:15 PM 77.2 °F - 70.7 °F 80% 29.92 in 10.0 mi Calm Calm - 0.02 in Rain Light Rain
3:35 PM 81.5 °F 84.2 °F 67.8 °F 63% 29.90 in 10.0 mi SW 6.9 mph - 0.02 in   Overcast
3:36 PM 81.7 °F 84.3 °F 67.5 °F 62% 29.90 in 10.0 mi SW 5.8 mph - 0.02 in   Overcast
3:55 PM 83.3 °F 85.3 °F 65.8 °F 55% 29.89 in 10.0 mi West 10.4 mph 16.1 mph 0.02 in   Mostly Cloudy
4:18 PM 81.7 °F 83.8 °F 66.0 °F 59% 29.88 in 10.0 mi WSW 9.2 mph - N/A   Scattered Clouds
4:36 PM 82.4 °F 84.4 °F 65.7 °F 57% 29.87 in 10.0 mi WSW 12.7 mph 17.3 mph N/A   Scattered Clouds
4:55 PM 82.9 °F 84.6 °F 64.6 °F 54% 29.87 in 10.0 mi West 10.4 mph - N/A   Scattered Clouds
5:15 PM 82.6 °F 84.5 °F 65.7 °F 56% 29.87 in 10.0 mi WSW 10.4 mph 21.9 mph N/A   Scattered Clouds
5:16 PM 82.6 °F 84.5 °F 65.7 °F 56% 29.87 in 10.0 mi WSW 10.4 mph 21.9 mph N/A   Scattered Clouds
5:39 PM 82.6 °F 84.3 °F 64.9 °F 55% 29.87 in 10.0 mi WSW 11.5 mph 19.6 mph N/A   Scattered Clouds
5:57 PM 82.6 °F 84.1 °F 64.4 °F 54% 29.87 in 10.0 mi WSW 15.0 mph 19.6 mph N/A   Clear
6:15 PM 82.4 °F 83.9 °F 64.0 °F 54% 29.86 in 10.0 mi SW 8.1 mph 18.4 mph N/A   Clear
6:16 PM 82.4 °F 83.9 °F 64.2 °F 54% 29.86 in 10.0 mi SW 11.5 mph 16.1 mph N/A   Clear
6:35 PM 81.5 °F 82.8 °F 63.1 °F 54% 29.85 in 10.0 mi WSW 9.2 mph 17.3 mph N/A   Scattered Clouds
6:36 PM 81.5 °F 82.8 °F 63.1 °F 54% 29.85 in 10.0 mi WSW 10.4 mph 17.3 mph N/A   Scattered Clouds
6:55 PM 79.9 °F - 61.9 °F 54% 29.85 in 10.0 mi West 6.9 mph - N/A   Scattered Clouds
7:00 PM 79.3 °F - 62.8 °F 57% 29.85 in 10.0 mi WSW 6.9 mph - N/A   Scattered Clouds
7:18 PM 78.4 °F - 63.5 °F 60% 29.85 in 10.0 mi SW 3.5 mph - N/A   Scattered Clouds
7:36 PM 77.9 °F - 64.4 °F 63% 29.84 in 10.0 mi Calm Calm - N/A   Scattered Clouds
7:55 PM 77.4 °F - 64.9 °F 65% 29.84 in 10.0 mi Calm Calm - N/A   Mostly Cloudy
7:56 PM 77.4 °F - 65.1 °F 66% 29.84 in 10.0 mi Calm Calm - N/A   Mostly Cloudy
8:15 PM 75.2 °F - 67.3 °F 76% 29.83 in 10.0 mi Calm Calm - N/A   Scattered Clouds
8:39 PM 74.5 °F - 66.2 °F 75% 29.82 in 10.0 mi Calm Calm - N/A   Scattered Clouds
8:57 PM 75.0 °F - 65.7 °F 73% 29.82 in 10.0 mi Calm Calm - N/A   Mostly Cloudy
9:15 PM 72.1 °F - 66.9 °F 84% 29.82 in 10.0 mi Calm Calm - N/A   Scattered Clouds
9:16 PM 72.1 °F - 67.1 °F 84% 29.82 in 10.0 mi Calm Calm - N/A   Mostly Cloudy
9:35 PM 72.5 °F - 63.1 °F 72% 29.84 in 10.0 mi North 13.8 mph 25.3 mph N/A   Overcast
9:59 PM 66.7 °F - 64.0 °F 91% 29.87 in 5.0 mi North 8.1 mph - N/A Rain Rain
10:16 PM 66.2 °F - 64.4 °F 94% 29.87 in 4.0 mi North 8.1 mph - 0.01 in Rain Heavy Rain
10:35 PM 66.2 °F - 64.4 °F 94% 29.87 in 4.0 mi Calm Calm - 0.02 in Rain Heavy Rain
10:58 PM 66.2 °F - 64.4 °F 94% 29.88 in 3.0 mi West 6.9 mph - 0.05 in Rain Rain
11:15 PM 65.8 °F - 64.0 °F 94% 29.86 in 5.0 mi NNE 3.5 mph - 0.02 in Rain Rain
11:35 PM 65.8 °F - 64.4 °F 95% 29.86 in 4.0 mi WNW 4.6 mph - 0.06 in Rain Heavy Rain
11:36 PM 65.8 °F - 64.4 °F 95% 29.86 in 4.0 mi West 4.6 mph - 0.06 in Rain Heavy Rain
11:55 PM 65.7 °F - 64.4 °F 96% 29.85 in 4.0 mi West 5.8 mph - 0.09 in Rain Rain
11:56 PM 65.7 °F - 64.4 °F 96% 29.85 in 4.0 mi Calm Calm - 0.10 in Rain Rain